Weather Roundup
Issued by NWS Chicago, IL

Home | Current Version | Previous Version | Text Only | Print | Product List | Glossary Off
Versions: 1 2 3 4 5 6 7 8 9 10 11 12 13 14 15 16 17 18 19 20 21 22 23 24 25 26 27 28 29 30 31 32 33 34 35 36 37 38 39 40 41 42 43 44 45 46 47 48 49 50

000
NZUS59 KLOT 030210
HRRLOT

CHICAGO AREA WEATHER ROUNDUP
NATIONAL WEATHER SERVICE CHICAGO/ROMEOVILLE IL
900 PM CDT TUE SEP 02 2014

NOTE: "FAIR" INDICATES FEW OR NO CLOUDS BELOW 12,000 FEET WITH NO
SIGNIFICANT WEATHER AND/OR OBSTRUCTIONS TO VISIBILITY.

* THESE STATIONS ARE NOT UNDER NWS QUALITY CONTROL. THEY ALSO MAY NOT
  REPORT WEATHER SUCH AS PRECIPITATION OR FOG.

ILZ005-006-012>014-019>023-030300-
NORTHEAST ILLINOIS

CITY           SKY/WX    TMP DP  RH WIND       PRES   REMARKS
OHARE          MOCLDY    73  58  59 NW5       29.92R
MIDWAY         PTCLDY    75  59  57 W5        29.92R
AURORA         PTCLDY    68  63  84 W3        29.94R
LANSING*         N/A    N/A N/A N/A MISG        N/A
JOLIET*        CLEAR     66  62  87 CALM      29.94R
WAUKEGAN       CLEAR     65  61  87 CALM      29.92R
DUPAGE AIRPORT PTCLDY    71  61  70 W5        29.93R
WHEELING       CLEAR     75  60  59 W3        29.94R
KANKAKEE*      CLEAR     64  63  94 S3        29.95R
MORRIS*        CLEAR     68  64  86 CALM      29.93S
LEWIS AIRPORT* CLEAR     70  60  71 W5        29.93R
NORTHERLY IS     N/A     77  57  50 SW2         N/A
$$

WIZ051-052-058>065-066-070>072-030300-
SOUTHEAST WISCONSIN

CITY           SKY/WX    TMP DP  RH WIND       PRES   REMARKS
MILWAUKEE      PTCLDY    69  57  65 CALM      29.92R
KENOSHA*       CLEAR     63  60  90 CALM      29.93R
RACINE*        CLEAR     69  59  70 W5        29.94R
BURLINGTON     CLEAR     60  59  97 CALM      29.93R
WAUKESHA       CLEAR     63  55  77 SW3       29.93R
WEST BEND      CLEAR     61  57  88 CALM      29.91S
$$

INZ001>003-010>013-019-020-030300-
NORTHWEST INDIANA

CITY           SKY/WX    TMP DP  RH WIND       PRES   REMARKS
GARY*          NOT AVBL
MICHIGAN CITY* NOT AVBL
RENSSELAER*    NOT AVBL
VALPARAISO     CLEAR     68  64  87 E3        29.95R
$$

LMZ740>746-030300-
SOUTHERN LAKE MICHIGAN

STATION/POSITION TIME  SKY/WX   TEMP WIND        PRES    VSBY
                                AIR  DIR/SP/G
                 (UTC)          (F)  (DEG/KT/KT) (MB)    (MI)
HARRISON CRIB    0200            72  160/  7/ 10   N/A
BURNHAM HARBOR   0200            76  290/  3/  6   N/A
CALUMET HARBOR   0200            74   CALM  /  1 1012.2R
BURNS HARBOR     NOT AVBL
MICHIGAN CITY    0200            73  120/  6/  6   N/A
$$

ABBREVIATIONS USED IN REMARKS
   TC - TEMPERATURE IN CELSIUS
  WCI - WIND CHILL INDEX
   HX - HEAT INDEX
  VSB - VISIBILITY
$$



USA.gov is the U.S. government's official web portal to all federal, state and local government web resources and services.